AOBA-V3LOX3
1 41935U 98067KX 18109.73731392 .00035888 00000-0 23510-3 0 9992
2 41935 51.6361 278.3651 0003356 319.6248 40.4502 15.75410121 71693
EO-88
1 42017U 17008BX 18109.47649777 .00001560 00000-0 66907-4 0 9994
2 42017 097.4534 174.8732 0005473 213.3657 146.7236 15.24245354065124
HAVELSAT
1 42700U 98067LH 18109.83186029 .00026690 00000-0 23937-3 0 9999
2 42700 51.6363 292.5439 0003282 27.7386 332.3785 15.68096078 52852
SOMP2
1 42701U 98067LJ 18109.78838702 .00024561 00000-0 22726-3 0 9996
2 42701 51.6365 293.7539 0003382 28.0130 332.1048 15.67376175 52826
PHOENIX
1 42706U 98067LP 18109.72932694 .00018787 00000-0 17895-3 0 9994
2 42706 51.6363 294.1137 0000828 300.5119 59.5795 15.66847597 52734
X-CubeSat
1 42707U 98067LQ 18109.76541399 .00026294 00000-0 23265-3 0 9997
2 42707 51.6335 292.8045 0001055 292.0669 68.0216 15.68440255 52741
qbee
1 42708U 98067LR 18109.74768940 .00022995 00000-0 20942-3 0 9992
2 42708 51.6367 293.4707 0000930 296.4074 63.6827 15.67814546 52698
ZA-AeroSat
1 42713U 98067LU 18109.83833809 .00019759 00000-0 19741-3 0 9994
2 42713 51.6355 295.5824 0001849 296.5965 63.4841 15.65611636 52387
LINK
1 42714U 98067LV 18109.77015118 .00046442 00000-0 32693-3 0 9993
2 42714 51.6316 289.0341 0002841 283.8603 76.2079 15.73622747 52578
UPSat
1 42716U 98067LX 18109.75540217 .00033623 00000-0 26371-3 0 9999
2 42716 51.6345 290.5032 0001531 8.5894 351.5130 15.71223955 52578
SpaceCube
1 42717U 98067LY 18109.77232476 .00024487 00000-0 22309-3 0 9992
2 42717 51.6348 293.6282 0002041 25.9618 334.1480 15.67764144 51778
Hoopoe
1 42718U 98067LZ 18109.76014362 .00029840 00000-0 25149-3 0 9997
2 42718 51.6357 292.0507 0001721 12.9723 347.1318 15.69554363 51797
Challenger
1 42721U 98067MA 18109.73031101 .00058839 00000-0 35341-3 0 9993
2 42721 51.6303 286.5101 0003765 335.1253 24.9565 15.77164881 51568
NJUST-1
1 42722U 98067MB 18109.73861945 .00016575 00000-0 17185-3 0 9998
2 42722 51.6366 297.1797 0004899 11.9919 348.1192 15.64808322 51427
UNSW-EC0
1 42723U 98067MC 18109.78148097 .00030633 00000-0 25372-3 0 9998
2 42723 51.6376 292.2146 0003794 1.4467 358.6540 15.69956915 51473
DUTHsat
1 42724U 98067MD 18109.75889754 .00055020 00000-0 34854-3 0 9990
2 42724 51.6345 287.4856 0002896 335.8654 24.2210 15.75987072 51451
LO-90
1 42725U 98067ME 18109.86134111 .00023050 00000-0 21988-3 0 9995
2 42725 51.6365 294.9971 0003746 10.5131 349.5942 15.66658593 51365
nSIGHT1
1 42726U 98067MF 18109.74007144 .00009268 00000-0 11587-3 0 9997
2 42726 51.6389 301.7291 0005144 20.1777 339.9419 15.60608229 51278
SNUSAT 1B
1 42727U 98067MG 18109.74173630 .00020739 00000-0 19925-3 0 9992
2 42727 51.6349 295.6577 0005641 330.0683 29.9989 15.66545194 51314
QBITO
1 42728U 98067MH 18109.80373131 .00025683 00000-0 23288-3 0 9998
2 42728 51.6383 293.9015 0001657 4.2747 355.8263 15.67851480 51185
Aalto-2
1 42729U 98067MJ 18109.79148983 .00026727 00000-0 24009-3 0 9994
2 42729 51.6362 293.7776 0001594 2.4286 357.6718 15.68057672 51191
SUSat
1 42730U 98067MK 18109.73679655 .00020998 00000-0 19772-3 0 9990
2 42730 51.6361 294.9035 0001770 6.8039 353.2981 15.67050297 51169
i-INSPIRE II
1 42731U 98067ML 18109.73052768 .00028727 00000-0 23403-3 0 9995
2 42731 51.6347 291.8186 0005028 311.1558 48.9005 15.70386554 51252
PolyITAN-2-SAU
1 42732U 98067MM 18109.76357950 .00025826 00000-0 23016-3 0 9997
2 42732 51.6355 293.5624 0005225 312.4671 47.5884 15.68263134 51230
ExAlta-1
1 42734U 98067MP 18109.73072983 .00033354 00000-0 26682-3 0 9993
2 42734 51.6331 291.8069 0005427 336.3539 23.7208 15.70740621 51209
Aoxiang-1
1 42735U 98067MQ 18109.84206707 .00019170 00000-0 19581-3 0 9999
2 42735 51.6357 296.3528 0005351 8.5788 351.5297 15.65065074 52575
BeEagleSat
1 42736U 98067MR 18109.75433825 .00018210 00000-0 17839-3 0 9991
2 42736 51.6357 295.7598 0004999 6.4204 353.6855 15.66161883 51267
CAS-4B
1 42759U 17034B 18109.89395943 .00000224 00000-0 27367-4 0 9998
2 42759 43.0193 43.2748 0007584 101.2140 327.2992 15.09250563 46640
CAS-4A
1 42761U 17034D 18109.81803471 .00000379 00000-0 36877-4 0 9990
2 42761 43.0188 43.4976 0007848 102.0830 356.8866 15.09327828 46625
UCLSat
1 42765U 17036A 18109.42421361 .00001258 00000-0 58639-4 0 9994
2 42765 097.4068 170.2062 0010184 284.3989 075.6117 15.21688783046360
NIUSat
1 42766U 17036B 18109.35882446 .00001004 00000-0 49352-4 0 9993
2 42766 97.4070 169.5446 0014337 269.6982 90.2610 15.20258720 45592
LituanicaSAT 2
1 42768U 17036D 18109.59271282 .00001908 00000-0 88722-4 0 9998
2 42768 097.4082 170.0071 0014122 271.1960 088.7658 15.21110224045652
Aalto 1
1 42775U 17036L 18109.60140042 .00000827 00000-0 40773-4 0 9990
2 42775 097.4063 169.9688 0012577 269.5186 090.4608 15.20637542045597
URSA MAIOR
1 42776U 17036M 18109.59081598 .00000862 00000-0 42271-4 0 9993
2 42776 097.4070 169.9978 0012423 269.7607 090.2205 15.20707888045590
Max Valier Sat
1 42778U 17036P 18109.83585546 .00000987 00000-0 47331-4 0 9994
2 42778 97.4092 170.5032 0010955 274.2975 85.7009 15.21174174 45635
Pegasus
1 42784U 17036V 18109.71750701 .00001152 00000-0 54230-4 0 9996
2 42784 97.4071 170.4351 0010725 283.2030 76.8009 15.21507142 45624
NUDATSat
1 42787U 17036Y 18109.45939780 .00001731 00000-0 78786-4 0 9991
2 42787 097.4077 170.3291 0010261 283.7577 076.2517 15.22012695045433
SUCHAI 1
1 42788U 17036Z 18109.68458216 .00001339 00000-0 62099-4 0 9991
2 42788 97.4071 170.4774 0010324 283.3728 76.6357 15.21748672 45693
SKCUBE
1 42789U 17036AA 18109.61702639 .00001270 00000-0 59114-4 0 9994
2 42789 097.4071 170.4100 0010160 283.5102 076.5002 15.21723372045600
VZLUSAT 1
1 42790U 17036AB 18109.12088047 .00001756 00000-0 79802-4 0 9997
2 42790 097.4074 170.0038 0009836 285.6809 074.3341 15.22038831045530
VENTA 1
1 42791U 17036AC 18109.46917238 .00001247 00000-0 57984-4 0 9990
2 42791 097.4070 170.2998 0009810 285.0308 074.9842 15.21783891045572
Robusta 1B
1 42792U 17036AD 18109.85406413 .00001276 00000-0 59144-4 0 9994
2 42792 97.4067 170.6943 0009738 283.9033 76.1119 15.21862709 45650
D-SAT
1 42794U 17036AF 18109.71904672 .00000401 00000-0 40124-4 0 9998
2 42794 97.5979 166.5661 0128606 116.5459 244.9010 14.90828423 45010
BIRD-J
1 42820U 98067MU 18109.79218954 .00019792 00000-0 20024-3 0 9999
2 42820 51.6359 297.5183 0002574 288.9782 71.0935 15.65291987 44707
BIRD-G
1 42821U 98067MV 18108.99678556 .00020370 00000-0 20942-3 0 9992
2 42821 51.6356 301.9571 0002469 288.7808 71.2919 15.64863980 44550
BIRD-M
1 42822U 98067MW 18109.56095247 .00018129 00000-0 18563-3 0 9992
2 42822 051.6358 298.9776 0002490 293.2281 066.8452 15.65056118044667
BIRD-B
1 42823U 98067MX 18109.75147136 .00018418 00000-0 18789-3 0 9990
2 42823 51.6365 298.0138 0004677 323.6430 36.4247 15.65131164 44673
BIRD-N
1 42824U 98067MY 18109.76899084 .00017765 00000-0 18256-3 0 9991
2 42824 51.6370 298.1437 0004564 324.5024 35.5667 15.64975834 44661
TechnoSat
1 42829U 17042E 18109.76901865 .00000135 00000-0 19153-4 0 9992
2 42829 97.6012 14.3077 0015272 38.8090 321.4222 14.90797683 41633
TOMSK-TPU 120
1 42910U 98067MZ 18109.83875443 .00014461 00000-0 16476-3 0 9990
2 42910 51.6357 300.8189 0005507 351.0087 9.0807 15.62509832 38258
TANYUSHA 1
1 42911U 98067NA 18109.79065775 .00016511 00000-0 18205-3 0 9995
2 42911 51.6364 300.5308 0005023 344.3307 15.7531 15.63236874 38230
TANYUSHA 2
1 42912U 98067NB 18109.77394205 .00014960 00000-0 16851-3 0 9998
2 42912 51.6372 301.1361 0004452 358.7757 1.3225 15.62777299 38241
